Regional Weather Roundup
Issued by NWS

Home | Current Version | Previous Version | Graphics & Text | Print | Product List | Glossary On
Versions: 1 2 3 4 5 6 7 8 9 10 11 12 13 14 15 16 17 18 19 20 21 22 23 24 25 26 27 28 29 30 31 32 33 34 35 36 37 38 39 40 41 42 43 44 45 46 47 48 49 50
000
ASUS45 KTFX 072010
RWRMT
MONTANA REGIONAL WEATHER ROUNDUP
NATIONAL WEATHER SERVICE GREAT FALLS MT
100 PM MST SUN FEB 07 2016

NOTE: "FAIR" INDICATES FEW OR NO CLOUDS BELOW 12000 FEET WITH NO
SIGNIFICANT WEATHER AND/OR OBSTRUCTIONS TO VISIBILITY.

MTZ001>007-043-072100-
WEST OF THE DIVIDE

CITY           SKY/WX    TMP DP  RH WIND       PRES   REMARKS
KALISPELL      SUNNY     34  22  61 CALM      30.56F
MISSOULA       SUNNY     32  22  66 W3        30.60F
BUTTE          SUNNY     26  17  68 CALM      30.48F
MULLAN PASS    SUNNY     29  20  69 VRB3      30.50R
ANACONDA         N/A     32  18  55 N6        30.50S WCI  26
DEER LODGE       N/A     30  18  59 N5        30.53F
HAMILTON         N/A     41  21  45 N5        30.54F
LIBBY            N/A     36  23  60 CALM      30.60F
$$

MTZ008-052>055-072100-
SOUTHWEST MONTANA

CITY           SKY/WX    TMP DP  RH WIND       PRES   REMARKS
BOZEMAN        SUNNY     33  19  56 CALM      30.50F
DILLON         SUNNY     36  20  52 CALM      30.46F
ENNIS          SUNNY     41   7  24 CALM      30.53S
$$

MTZ009-010-012-014-046-048-049-054-072100-
EAST SLOPES AND CENTRAL MONTANA

CITY           SKY/WX    TMP DP  RH WIND       PRES   REMARKS
CUT BANK       SUNNY     40  10  29 W12       30.42F
GREAT FALLS    SUNNY     42   8  24 W9        30.45F
MALMSTROM AFB  SUNNY     41   9  27 W12       30.46F
HELENA         SUNNY     40  19  43 W12       30.47F
CHOTEAU          N/A     41   5  22 VRB7      30.44F
$$

MTZ011-013-016-021-045-047-050-051-072100-
NORTH CENTRAL MONTANA

CITY           SKY/WX    TMP DP  RH WIND       PRES   REMARKS
HAVRE          SUNNY     40  13  33 W18       30.45F
LEWISTOWN      SUNNY     34  11  38 NW13G20   30.42F WCI  25
N BAR RANCH      N/A     34   9  35 NW23      30.41F WCI  22
CHINOOK          N/A     39  10  30 NW18G30   30.43S WCI  30
$$

MTZ017>020-022>027-061-062-072100-
NORTHEAST MONTANA

CITY           SKY/WX    TMP DP  RH WIND       PRES   REMARKS
GLASGOW        SUNNY     35  21  56 NW31G40   30.31R WCI  22
JORDAN           N/A     36  18  48 NW29G37   30.35F WCI  23
SIDNEY         SUNNY     37  12  35 NW36G44   30.20S WCI  24
WOLF POINT     SUNNY     39  20  46 NW33G47   30.28S WCI  27
PLENTYWOOD       N/A     32  19  59 NW35G45   30.14F WCI  17
POPLAR           N/A     36  19  51 NW30G44   30.24F WCI  22
$$

MTZ028>42-056>058-072100-
SOUTHCENTRAL AND SOUTHEAST MONTANA

CITY           SKY/WX    TMP DP  RH WIND       PRES   REMARKS
BILLINGS       CLOUDY    40   7  25 N21       30.42F
LIVINGSTON     SUNNY     42  11  28 W23G33    30.42F
MILES CITY     SUNNY     40  13  33 N29G38    30.33F
FORSYTH          N/A     39   9  28 NW25G43   30.37S WCI  28
LAUREL           N/A     42   8  24 NW14      30.37F
ROUNDUP          N/A     40   4  22 NW15      30.30F
$$

REGIONAL REPORTS...DAKOTAS

CITY           SKY/WX    TMP DP  RH WIND       PRES   REMARKS
WILLISTON      SUNNY     37  17  44 NW33G43   30.16R WCI  24
MINOT          FLURRIES  29  15  56 NW32G53   29.99R WCI  13
DICKINSON      PTSUNNY   31  12  45 NW38G49   30.08R WCI  15
BEACH            N/A     36  10  35 NW36G45   30.21S WCI  21
CROSBY           N/A     32  21  64 NW37G45   30.12S WCI  16
TIOGA          PTSUNNY   32  23  69 NW33G43   30.12R WCI  17
WATFORD CITY     N/A     34  16  47 NW36G52   30.13S WCI  19
BISMARCK       CLOUDY    34  19  54 NW39G54   29.97R WCI  19
GRAND FORKS    CLOUDY    22  13  68 N30G44    29.78R WCI   4
FARGO          CLOUDY    27  18  69 NW38G44   29.76R WCI   9
BUFFALO SD       N/A     39  11  31 NW49G69   30.04S WCI  24
RAPID CITY     SUNNY     39   7  26 NW52G64   30.15S WCI  24
$$

REGIONAL REPORTS...WYOMING/IDAHO/WASHINGTON

CITY           SKY/WX    TMP DP  RH WIND       PRES   REMARKS
GILLETTE       SUNNY     32  13  45 NW32G43   30.31F WCI  17
SHERIDAN       PTSUNNY   36   7  30 NW26      30.38F WCI  23
BUFFALO WY     SUNNY     32  14  47 N30G44    30.33F WCI  18
CODY           SUNNY     36  14  41 N10       30.38F WCI  28
YELLOWSTONE LA   N/A     30   8  39 VRB6      30.44S WCI  24
IDAHO FALLS    CLOUDY    25  23  92 NW8       30.60S FOG     WCI  16
SALMON         SUNNY     23  12  63 CALM      30.61F
BOISE          SUNNY     43  33  68 CALM      30.61F
SPOKANE        PTSUNNY   33  30  88 NE5       30.60F
$$

REGIONAL REPORTS...ALBERTA

CITY           SKY/WX    TMP DP  RH WIND       PRES   REMARKS
EDMONTON       SUNNY     34  18  51 W12G17    30.34S WCI  25
CALGARY        PTSUNNY   37   5  25 W5        30.36F
LETHBRIDGE     PTSUNNY   41   1  19 SW2       30.41F
MEDICINE HAT   PTSUNNY   41  10  28 NW20G26   30.42S
$$

REGIONAL REPORTS...SASKATCHEWAN

CITY           SKY/WX    TMP DP  RH WIND       PRES   REMARKS
SWIFT CURRENT  SUNNY     34  18  51 NW29G36   30.26R WCI  20
REGINA         MOSUNNY   30  21  69 NW35G43   30.15R WCI  14
SASKATOON      MOSUNNY   30  21  69 NW22G29   30.23R WCI  17
$$



USA.gov is the U.S. government's official web portal to all federal, state and local government web resources and services.